Regional Weather Roundup
Issued by NWS Bismarck, ND

Home | Current Version | Previous Version | Text Only | Print | Product List | Glossary On
Versions: 1 2 3 4 5 6 7 8 9 10 11 12 13 14 15 16 17 18 19 20 21 22 23 24 25 26 27 28 29 30 31 32 33 34 35 36 37 38 39 40 41 42 43 44 45 46 47 48 49 50
000
ASUS43 KBIS 211110
RWRBIS

NWR BROADCAST TEXT
NATIONAL WEATHER SERVICE BISMARCK ND
600 AM CDT MON AUG 21 2017

NOTE: "FAIR" INDICATES FEW OR NO CLOUDS BELOW 12,000 FEET WITH NO
SIGNIFICANT WEATHER AND/OR OBSTRUCTIONS TO VISIBILITY.


CITY           SKY/WX    TMP DP  RH WIND       PRES   REMARKS
WILLISTON      CLOUDY    58  48  69 S5        29.94F
MINOT          PTCLDY    57  50  77 NE5       29.96F
MINOT AFB      CLOUDY    57  49  74 SE7       29.95F
BISMARCK       MOCLDY    58  53  84 SE9       29.96F
DICKINSON      CLEAR     50  46  86 S8        29.98R
GARRISON         N/A     61  54  77 S13G21    29.93F
HETTINGER ARPT MOCLDY    54  48  80 CALM      30.02R
JAMESTOWN      CLOUDY    57  54  89 CALM      29.99S
CARRINGTON     PTSUNNY   57  54  88 SW5       30.04F
HAZEN          CLOUDY    59  54  82 VRB7G15   29.96S
LINTON         CLOUDY    59  46  63 N8        30.02R
MANDAN         FAIR      54  54 100 SE10      29.97F
RUGBY          FAIR      54  54 100 E9        29.99F FOG
STANLEY        FAIR      54  54 100 SE3       29.98S
TIOGA          FAIR      54  48  82 CALM      29.96S
WATFORD CITY   FAIR      52  48  87 CALM      29.95S
$$

CITY           SKY/WX    TMP DP  RH WIND       PRES   REMARKS
GRAND FORKS    CLOUDY    55  53  93 CALM      30.00R
GRAND FORKS AF CLOUDY    53  51  91 NW6       30.02R
DEVILS LAKE    LGT RAIN  60  54  80 SW5       30.02R
FARGO          CLOUDY    60  57  89 CALM      30.02R
CANDO          FAIR      52  52 100 S7        30.03F
CAVALIER       FAIR      57  50  77 CALM      29.99R
GRAFTON        FAIR      55  54  94 NW12      30.02R
GWINNER        MOSUNNY   57  55  94 CALM      30.03R
LANGDON        PTSUNNY   55  55 100 S6        30.01F
ROLLA          CLOUDY    55  54  94 SW7       30.01S
WALHALLA       FAIR      59  59 100 CALM      29.99S
$$

CITY           SKY/WX    TMP DP  RH WIND       PRES   REMARKS
ABERDEEN       CLOUDY    56  55  97 NE5       30.03R
MOBRIDGE       CLOUDY    65  58  78 S8        29.91R THUNDER
BUFFALO          N/A     56  50  80 SW6       29.95R
RAPID CITY     CLOUDY    61  52  72 NE8       29.99R
GLASGOW        CLEAR     57  34  41 N8        30.01R
SIDNEY         CLOUDY    54  48  80 SW7       29.97R
WOLF POINT     CLEAR     63  35  35 NW12      29.99R
GLENDIVE       PTCLDY    53  42  66 W5        30.01R
MILES CITY     MOCLDY    58  40  51 NW8       30.03R
BAKER          PTCLDY    56  47  71 CALM      30.01S
$$

CITY           SKY/WX    TMP DP  RH WIND       PRES   REMARKS
BILLINGS       PTCLDY    59  36  42 SW6       30.11R
GREAT FALLS    CLEAR     48  29  47 SW8       30.13R
REGINA         PTCLDY    48  41  76 NW9       29.99R
ESTEVAN        MOCLDY    59  45  58 SW8       29.92R
$$





USA.gov is the U.S. government's official web portal to all federal, state and local government web resources and services.